EN

Hourly Weather Lugovaya

Today, 27 November, Friday

Time Temperature Precipitation Wind Pressure Humidity
00:00 -2°C° 0 mm 4 mps 741 mmHg 88%
01:00 -2°C° 0 mm 4 mps 740 mmHg 88%
02:00 -1°C° 0 mm 3 mps 740 mmHg 90%
03:00 -2°C° 0 mm 4 mps 740 mmHg 90%
04:00 -2°C° 0 mm 4 mps 739 mmHg 90%
05:00 -2°C° 0 mm 4 mps 739 mmHg 90%
06:00 -2°C° 0 mm 4 mps 738 mmHg 90%
07:00 -2°C° 0 mm 4 mps 738 mmHg 90%
08:00 -2°C° 0 mm 4 mps 738 mmHg 90%
09:00 -2°C° 0.3 mm 4 mps 738 mmHg 92%
10:00 -1°C° 0.3 mm 4 mps 737 mmHg 93%
11:00 0°C° 0.3 mm 4 mps 737 mmHg 95%
12:00 0°C° 0.4 mm 4 mps 737 mmHg 95%
13:00 0°C° 0.4 mm 4 mps 737 mmHg 96%
14:00 0°C° 0 mm 4 mps 737 mmHg 95%
15:00 0°C° 0.3 mm 4 mps 737 mmHg 95%
16:00 0°C° 0.3 mm 4 mps 737 mmHg 96%
17:00 0°C° 0.3 mm 4 mps 737 mmHg 97%
18:00 -1°C° 0.1 mm 4 mps 737 mmHg 95%
19:00 -1°C° 0.1 mm 4 mps 738 mmHg 93%
20:00 -1°C° 0.1 mm 3 mps 738 mmHg 91%
21:00 -1°C° 0 mm 3 mps 738 mmHg 91%
22:00 -2°C° 0 mm 2 mps 739 mmHg 91%
23:00 -2°C° 0 mm 2 mps 739 mmHg 91%

Tomorrow, 28 November, Saturday

Time Temperature Precipitation Wind Pressure Humidity
00:00 -2°C° 0 mm 2 mps 740 mmHg 91%
01:00 -2°C° 0 mm 2 mps 740 mmHg 92%
02:00 -1°C° 0 mm 2 mps 740 mmHg 93%
03:00 +1°C° 0 mm 1 mps 740 mmHg 93%
04:00 +1°C° 0 mm 1 mps 741 mmHg 93%
05:00 +1°C° 0 mm 1 mps 741 mmHg 93%
06:00 0°C° 0 mm 1 mps 741 mmHg 93%
07:00 0°C° 0 mm 1 mps 742 mmHg 93%
08:00 0°C° 0 mm 1 mps 742 mmHg 94%
09:00 +1°C° 0 mm 1 mps 743 mmHg 91%
10:00 +1°C° 0 mm 1 mps 743 mmHg 88%
11:00 +2°C° 0 mm 1 mps 744 mmHg 85%
12:00 +2°C° 0 mm 1 mps 744 mmHg 87%
13:00 +2°C° 0 mm 1 mps 744 mmHg 88%
14:00 +1°C° 0 mm 2 mps 744 mmHg 89%
15:00 +1°C° 0 mm 2 mps 745 mmHg 91%
16:00 -1°C° 0 mm 2 mps 745 mmHg 93%
17:00 -1°C° 0 mm 2 mps 745 mmHg 95%
18:00 -1°C° 0 mm 2 mps 745 mmHg 95%
19:00 -1°C° 0 mm 2 mps 746 mmHg 95%
20:00 -1°C° 0 mm 2 mps 746 mmHg 95%
21:00 -1°C° 0.1 mm 2 mps 746 mmHg 96%
22:00 -1°C° 0.1 mm 2 mps 746 mmHg 96%
23:00 -1°C° 0.1 mm 3 mps 746 mmHg 96%

Day after tomorrow, 29 November, Sunday

Time Temperature Precipitation Wind Pressure Humidity
00:00 -1°C° 0.2 mm 3 mps 747 mmHg 96%
01:00 -1°C° 0.2 mm 3 mps 747 mmHg 96%
02:00 -1°C° 0.2 mm 3 mps 747 mmHg 97%
03:00 -2°C° 0.1 mm 3 mps 747 mmHg 96%
04:00 -2°C° 0.1 mm 3 mps 746 mmHg 96%
05:00 -2°C° 0.1 mm 3 mps 746 mmHg 96%
06:00 -2°C° 0.2 mm 3 mps 746 mmHg 96%
07:00 -2°C° 0.2 mm 3 mps 746 mmHg 96%
08:00 -3°C° 0.2 mm 4 mps 746 mmHg 96%
09:00 -2°C° 0.4 mm 4 mps 746 mmHg 97%
10:00 -1°C° 0.4 mm 3 mps 746 mmHg 97%
11:00 -1°C° 0.4 mm 3 mps 746 mmHg 97%
12:00 -1°C° 0.2 mm 3 mps 745 mmHg 97%
13:00 -1°C° 0.2 mm 3 mps 745 mmHg 98%
14:00 -1°C° 0.2 mm 3 mps 745 mmHg 98%
15:00 -1°C° 0.4 mm 2 mps 744 mmHg 98%
16:00 +1°C° 0.4 mm 1 mps 744 mmHg 98%
17:00 +1°C° 0.4 mm 1 mps 744 mmHg 99%
18:00 +1°C° 0.1 mm 1 mps 744 mmHg 98%
19:00 -1°C° 0.1 mm 2 mps 744 mmHg 98%
20:00 -1°C° 0.1 mm 2 mps 745 mmHg 98%
21:00 -1°C° 0 mm 2 mps 745 mmHg 96%
22:00 -1°C° 0 mm 2 mps 745 mmHg 94%
23:00 -1°C° 0 mm 2 mps 745 mmHg 93%

30 November, Monday

Time Temperature Precipitation Wind Pressure Humidity
00:00 -2°C° 0 mm 2 mps 745 mmHg 92%
01:00 -2°C° 0 mm 2 mps 746 mmHg 92%
02:00 -2°C° 0 mm 2 mps 746 mmHg 92%
03:00 -3°C° 0 mm 2 mps 746 mmHg 93%
04:00 -3°C° 0 mm 2 mps 746 mmHg 93%
05:00 -3°C° 0 mm 2 mps 746 mmHg 94%
06:00 -3°C° 0 mm 2 mps 746 mmHg 95%
07:00 -4°C° 0 mm 2 mps 747 mmHg 95%
08:00 -4°C° 0 mm 2 mps 747 mmHg 96%
09:00 -4°C° 0 mm 3 mps 747 mmHg 93%
10:00 -2°C° 0 mm 3 mps 748 mmHg 90%
11:00 -1°C° 0 mm 3 mps 748 mmHg 88%
12:00 -2°C° 0 mm 3 mps 748 mmHg 87%
13:00 -2°C° 0 mm 3 mps 748 mmHg 86%
14:00 -2°C° 0 mm 3 mps 749 mmHg 85%
15:00 -2°C° 0 mm 2 mps 749 mmHg 86%
16:00 -2°C° 0 mm 2 mps 749 mmHg 86%
17:00 -2°C° 0 mm 2 mps 749 mmHg 87%
18:00 -2°C° 0 mm 2 mps 749 mmHg 86%
19:00 -2°C° 0 mm 2 mps 750 mmHg 85%
20:00 -2°C° 0 mm 2 mps 750 mmHg 84%
21:00 -3°C° 0 mm 2 mps 750 mmHg 85%
22:00 -1°C° 0 mm 1 mps 750 mmHg 87%
23:00 -2°C° 0 mm 1 mps 750 mmHg 88%

1 December, Tuesday

Time Temperature Precipitation Wind Pressure Humidity
00:00 -2°C° 0 mm 1 mps 750 mmHg 89%
01:00 -2°C° 0 mm 1 mps 750 mmHg 89%
02:00 -2°C° 0 mm 1 mps 750 mmHg 90%
03:00 -2°C° 0 mm 1 mps 751 mmHg 90%
04:00 -2°C° 0 mm 1 mps 751 mmHg 90%
05:00 -3°C° 0 mm 1 mps 751 mmHg 90%
06:00 -4°C° 0 mm 0 mps 751 mmHg 90%
07:00 -4°C° 0 mm 0 mps 751 mmHg 90%
08:00 -4°C° 0 mm 0 mps 751 mmHg 90%
09:00 -3°C° 0 mm 0 mps 751 mmHg 87%
10:00 -1°C° 0 mm 1 mps 752 mmHg 85%
11:00 -1°C° 0 mm 1 mps 752 mmHg 83%
12:00 -1°C° 0 mm 1 mps 752 mmHg 83%
13:00 -1°C° 0 mm 1 mps 752 mmHg 84%
14:00 -2°C° 0 mm 2 mps 752 mmHg 84%
15:00 -3°C° 0 mm 2 mps 752 mmHg 86%
16:00 -3°C° 0 mm 2 mps 752 mmHg 88%
17:00 -3°C° 0 mm 2 mps 752 mmHg 90%
18:00 -4°C° 0.2 mm 3 mps 752 mmHg 92%
19:00 -4°C° 0.2 mm 3 mps 752 mmHg 94%
20:00 -4°C° 0.2 mm 3 mps 752 mmHg 96%
21:00 -2°C° 0.2 mm 3 mps 752 mmHg 97%
22:00 -2°C° 0.2 mm 3 mps 752 mmHg 97%
23:00 -1°C° 0.2 mm 3 mps 752 mmHg 97%

2 December, Wednesday

Time Temperature Precipitation Wind Pressure Humidity
00:00 -1°C° 0.4 mm 3 mps 752 mmHg 97%
01:00 -1°C° 0.4 mm 3 mps 752 mmHg 97%
02:00 -3°C° 0.4 mm 4 mps 752 mmHg 97%
03:00 -3°C° 0.3 mm 4 mps 752 mmHg 96%
04:00 -3°C° 0.3 mm 4 mps 752 mmHg 94%
05:00 -3°C° 0.3 mm 4 mps 752 mmHg 93%
06:00 -4°C° 0 mm 4 mps 752 mmHg 92%
07:00 -4°C° 0 mm 4 mps 752 mmHg 91%
08:00 -4°C° 0 mm 4 mps 752 mmHg 90%
09:00 -4°C° 0.1 mm 4 mps 752 mmHg 90%
10:00 -5°C° 0.1 mm 5 mps 752 mmHg 90%
11:00 -5°C° 0.1 mm 5 mps 752 mmHg 90%
12:00 -5°C° 0.2 mm 5 mps 752 mmHg 91%
13:00 -5°C° 0.2 mm 5 mps 752 mmHg 92%
14:00 -5°C° 0.2 mm 5 mps 752 mmHg 93%
15:00 -5°C° 0.1 mm 5 mps 752 mmHg 94%
16:00 -5°C° 0.1 mm 5 mps 752 mmHg 94%
17:00 -4°C° 0.1 mm 4 mps 752 mmHg 94%
18:00 -4°C° 0.1 mm 4 mps 753 mmHg 94%
19:00 -5°C° 0.1 mm 4 mps 753 mmHg 93%
20:00 -5°C° 0.1 mm 4 mps 753 mmHg 93%
21:00 -5°C° 0.1 mm 4 mps 753 mmHg 93%
22:00 -5°C° 0.1 mm 4 mps 753 mmHg 93%
23:00 -5°C° 0.1 mm 4 mps 753 mmHg 92%
Show more